Tracking 25195 objects as of 20-Jan-2022
HD Live streaming from Space Station
objects crossing your sky now

SL-14 DEB

Track SL-14 DEB now!
10-day predictions


NORAD ID: 45331
Int'l Code: 1991-056BV
Perigee: 1,179.8 km
Apogee: 1,505.8 km
Inclination: 82.7 °
Period: 112.4 minutes
Semi major axis: 7713 km
RCS: Unknown
Launch date: August 15, 1991
Source: Commonwealth of Independent States (former USSR) (CIS)
Launch site: PLESETSK MISSILE AND SPACE COMPLEX (PKMTR)

Note: This is SATELLITE DEBRIS
aabbcc
Your satellite tracking list
Your tracking list is empty




NASA's NSSDC Master Catalog

Two Line Element Set (TLE):
1 45331U 91056BV  22019.84504980  .00001686  00000-0  65626-2 0  9997
2 45331  82.6841 235.9285 0211303  56.8946 305.2244 12.81435550 88559
Source of the keplerian elements: AFSPC